CW0121 Weather Reports


Display with metric or nautical units.
time (UTC)temp
F
wind
direction
speed
MPH
gust
MPH
rain 1hr
in
rain 24hr
in
rain mn
in
humidity
%
barometer
mb
20260507103503 28 136 0.0 1.0 0.00 0.00 0.00 78 1011.5
20260507103117 29 136 0.0 1.0 0.00 0.00 0.00 78 1011.4
20260507103023 29 136 0.0 1.0 0.00 0.00 0.00 77 1011.5
20260507102506 30 136 1.0 1.0 0.00 0.00 0.00 74 1011.6
20260507102007 31 136 1.0 1.0 0.00 0.00 0.00 72 1011.6
20260507101548 32 136 0.0 0.0 0.00 0.00 0.00 75 1011.4
20260507101535 32 136 0.0 0.0 0.00 0.00 0.00 75 1011.5
20260507101006 31 136 0.0 0.0 0.00 0.00 0.00 76 1011.5
20260507100508 30 136 0.0 0.0 0.00 0.00 0.00 77 1011.5
20260507100059 30 136 0.0 0.0 0.00 0.00 0.00 76 1011.4
20260507100031 30 136 0.0 0.0 0.00 0.00 0.00 75 1011.6
20260507095510 31 136 0.0 0.0 0.00 0.00 0.00 74 1011.6
20260507095014 31 136 0.0 0.0 0.00 0.00 0.00 72 1011.6
20260507094542 32 136 0.0 0.0 0.00 0.00 0.00 72 1011.4
20260507094525 32 136 0.0 0.0 0.00 0.00 0.00 71 1011.6
20260507094005 33 136 0.0 0.0 0.00 0.00 0.00 70 1011.7
20260507093504 33 136 0.0 1.0 0.00 0.00 0.00 70 1011.7
20260507093038 33 136 0.0 1.0 0.00 0.00 0.00 70 1011.5
20260507093010 33 136 0.0 1.0 0.00 0.00 0.00 70 1011.7
20260507092509 33 136 0.0 1.0 0.00 0.00 0.00 70 1011.7
20260507092005 34 136 0.0 0.0 0.00 0.00 0.00 69 1011.8
20260507091544 34 136 0.0 0.0 0.00 0.00 0.00 69 1011.8
20260507091539 34 136 0.0 0.0 0.00 0.00 0.00 69 1011.5
20260507091007 34 136 0.0 0.0 0.00 0.00 0.00 68 1011.7
20260507090507 34 136 0.0 0.0 0.00 0.00 0.00 68 1011.8
20260507090035 35 136 0.0 1.0 0.00 0.00 0.00 68 1011.7
20260507090022 35 136 0.0 1.0 0.00 0.00 0.00 68 1011.8
20260507085506 35 136 0.0 1.0 0.00 0.00 0.00 68 1011.8
20260507085006 35 146 0.0 0.0 0.00 0.00 0.00 68 1011.7
20260507084542 35 146 0.0 2.0 0.00 0.00 0.00 68 1011.7
20260507084527 35 146 0.0 2.0 0.00 0.00 0.00 68 1011.7
20260507084014 35 148 0.0 3.0 0.00 0.00 0.00 67 1011.8
20260507083510 35 160 1.0 3.0 0.00 0.00 0.00 67 1011.8
20260507083032 35 142 1.0 2.0 0.00 0.00 0.00 68 1011.7
20260507083026 35 146 1.0 4.0 0.00 0.00 0.00 67 1011.8
20260507082502 35 125 0.0 5.0 0.00 0.00 0.00 68 1011.8
20260507082005 35 150 3.0 6.0 0.00 0.00 0.00 68 1011.8
20260507081530 35 127 3.0 6.0 0.00 0.00 0.00 68 1011.5
20260507081514 35 148 4.0 6.0 0.00 0.00 0.00 67 1011.7
20260507081006 35 160 4.0 6.0 0.00 0.00 0.00 68 1011.7
20260507080510 35 135 4.0 6.0 0.00 0.00 0.00 67 1011.7
20260507080027 35 148 4.0 6.0 0.00 0.00 0.00 67 1011.6
20260507080017 35 162 4.0 6.0 0.00 0.00 0.00 67 1011.7
20260507075506 36 169 2.0 5.0 0.00 0.00 0.00 66 1011.8
20260507075009 36 155 2.0 5.0 0.00 0.00 0.00 65 1011.9
20260507074523 37 203 1.0 6.0 0.00 0.00 0.00 65 1011.8
20260507074521 37 195 2.0 6.0 0.00 0.00 0.00 64 1011.8
20260507074006 37 178 4.0 7.0 0.00 0.00 0.00 63 1011.8
20260507073507 38 174 3.0 7.0 0.00 0.00 0.00 63 1011.8
20260507073026 38 155 5.0 8.0 0.00 0.00 0.00 63 1011.8
20260507073022 38 162 5.0 8.0 0.00 0.00 0.00 63 1011.8
20260507072513 38 176 4.0 8.0 0.00 0.00 0.00 62 1011.8
20260507072011 38 117 4.0 8.0 0.00 0.00 0.00 62 1011.9
20260507071525 38 142 6.0 9.0 0.00 0.00 0.00 61 1011.9
20260507071002 38 168 6.0 9.0 0.00 0.00 0.00 61 1011.9
20260507070509 38 160 5.0 9.0 0.00 0.00 0.00 61 1011.9
20260507070020 38 169 3.0 9.0 0.00 0.00 0.00 62 1012.0
20260507070016 38 162 4.0 9.0 0.00 0.00 0.00 61 1012.0
20260507065505 38 170 7.0 9.0 0.00 0.00 0.00 62 1012.0
20260507065009 38 165 6.0 10.0 0.00 0.00 0.00 62 1012.1
20260507064520 38 179 6.0 11.0 0.00 0.00 0.00 62 1012.1
20260507064518 38 163 5.0 11.0 0.00 0.00 0.00 62 1012.0
20260507064005 38 134 7.0 12.0 0.00 0.00 0.00 62 1012.1
20260507063507 38 143 8.0 12.0 0.00 0.00 0.00 62 1012.1
20260507063026 38 150 7.0 11.0 0.00 0.00 0.00 63 1012.3
20260507063016 38 169 7.0 11.0 0.00 0.00 0.00 63 1012.2
20260507062510 38 146 6.0 12.0 0.00 0.00 0.00 63 1012.3
20260507062006 38 141 7.0 12.0 0.00 0.00 0.00 64 1012.3
20260507061531 38 175 8.0 13.0 0.00 0.00 0.00 64 1012.4
20260507061514 39 148 8.0 12.0 0.00 0.00 0.00 64 1012.3
20260507061009 39 139 6.0 13.0 0.00 0.00 0.00 65 1012.4
20260507060509 39 151 6.0 12.0 0.00 0.00 0.00 63 1012.5
20260507060031 39 139 8.0 13.0 0.00 0.00 0.00 62 1012.5
20260507060017 39 159 8.0 13.0 0.00 0.00 0.00 63 1012.4
20260507055508 39 135 8.0 13.0 0.00 0.00 0.00 62 1012.6
20260507055007 39 146 8.0 10.0 0.00 0.00 0.00 61 1012.7
20260507054520 39 165 4.0 9.0 0.00 0.00 0.00 62 1012.7
20260507054507 39 134 4.0 9.0 0.00 0.00 0.00 62 1012.6
20260507054007 39 148 6.0 10.0 0.00 0.00 0.00 62 1012.7
20260507053506 39 131 3.0 10.0 0.00 0.00 0.00 63 1012.8
20260507053019 39 117 5.0 9.0 0.00 0.00 0.00 64 1012.9
20260507053004 39 112 4.0 9.0 0.00 0.00 0.00 64 1012.7
20260507052507 38 147 6.0 9.0 0.00 0.00 0.00 64 1012.8
20260507052007 38 130 5.0 9.0 0.00 0.00 0.00 65 1012.9
20260507051602 38 127 5.0 9.0 0.00 0.00 0.00 66 1012.8
20260507051526 38 84 6.0 9.0 0.00 0.00 0.00 65 1012.9
20260507051010 38 116 3.0 7.0 0.00 0.00 0.00 65 1013.0
20260507050511 37 74 4.0 6.0 0.00 0.00 0.00 64 1013.0
20260507050059 37 75 3.0 6.0 0.00 0.00 0.00 64 1013.0
20260507050032 37 162 4.0 7.0 0.00 0.00 0.00 64 1013.1
20260507045510 37 111 3.0 7.0 0.00 0.00 0.00 63 1013.1
20260507045008 38 99 4.0 8.0 0.00 0.00 0.00 63 1013.3
20260507044558 38 129 2.0 9.0 0.00 0.00 0.00 62 1013.2
20260507044541 38 115 3.0 9.0 0.00 0.00 0.00 62 1013.3
20260507044017 38 109 5.0 11.0 0.00 0.00 0.00 61 1013.4
20260507043507 38 94 5.0 11.0 0.00 0.00 0.00 60 1013.5
20260507043054 38 84 4.0 9.0 0.00 0.00 0.00 60 1013.4
20260507043018 38 102 5.0 7.0 0.00 0.00 0.00 59 1013.5
20260507042511 38 120 4.0 10.0 0.00 0.00 0.00 58 1013.6
20260507042007 38 125 3.0 10.0 0.00 0.00 0.00 58 1013.6
20260507041601 38 76 2.0 6.0 0.00 0.00 0.00 58 1013.5
20260507041523 38 79 3.0 6.0 0.00 0.00 0.00 58 1013.6
20260507041008 38 108 4.0 6.0 0.00 0.00 0.00 57 1013.7
20260507040511 38 102 3.0 5.0 0.00 0.00 0.00 57 1013.8
20260507040052 39 97 2.0 6.0 0.00 0.00 0.00 58 1013.7
20260507040025 39 86 2.0 7.0 0.00 0.00 0.00 57 1013.9
20260507035507 39 54 3.0 7.0 0.00 0.00 0.00 56 1013.8
20260507035011 39 75 3.0 7.0 0.00 0.00 0.00 56 1013.8
20260507034550 39 75 3.0 6.0 0.00 0.00 0.00 56 1013.7
20260507034527 39 65 3.0 6.0 0.00 0.00 0.00 56 1013.8
20260507034004 39 106 3.0 9.0 0.00 0.00 0.00 55 1013.8
20260507033503 39 101 3.0 9.0 0.00 0.00 0.00 55 1013.9
20260507033051 39 62 3.0 7.0 0.00 0.00 0.00 55 1013.7
20260507033015 39 109 3.0 7.0 0.00 0.00 0.00 55 1013.8
20260507032507 39 79 3.0 6.0 0.00 0.00 0.00 54 1013.9
20260507032006 39 86 3.0 6.0 0.00 0.00 0.00 54 1014.0
20260507031549 40 72 3.0 6.0 0.00 0.00 0.00 54 1013.8
20260507031520 40 72 3.0 7.0 0.00 0.00 0.00 54 1013.9
20260507031011 40 65 4.0 9.0 0.00 0.00 0.00 53 1014.1
20260507030508 40 89 5.0 9.0 0.00 0.00 0.00 52 1014.1
20260507030048 41 60 4.0 8.0 0.00 0.00 0.00 52 1013.8
20260507030022 41 74 4.0 8.0 0.00 0.00 0.00 51 1014.0
20260507025507 41 47 4.0 8.0 0.00 0.00 0.00 51 1013.9
20260507025007 42 60 4.0 8.0 0.00 0.00 0.00 50 1013.9
20260507024552 43 60 5.0 8.0 0.00 0.00 0.00 49 1013.7
20260507024529 43 63 5.0 7.0 0.00 0.00 0.00 49 1013.9
20260507024008 43 49 5.0 8.0 0.00 0.00 0.00 48 1013.9
20260507023511 43 64 4.0 9.0 0.00 0.00 0.00 47 1013.9
20260507023048 43 53 5.0 10.0 0.00 0.00 0.00 47 1013.8
20260507023011 43 46 5.0 10.0 0.00 0.00 0.00 47 1013.9
20260507022503 44 41 5.0 10.0 0.00 0.00 0.00 47 1013.9
20260507022006 44 76 6.0 9.0 0.00 0.00 0.00 47 1013.9
20260507021600 44 52 5.0 8.0 0.00 0.00 0.00 47 1013.7
20260507021518 44 53 5.0 8.0 0.00 0.00 0.00 47 1014.1
20260507021010 44 56 5.0 8.0 0.00 0.00 0.00 47 1014.1
20260507020506 44 61 5.0 7.0 0.00 0.00 0.00 47 1014.1
20260507020106 45 70 3.0 7.0 0.00 0.00 0.00 47 1013.8
20260507020023 45 91 4.0 7.0 0.00 0.00 0.00 47 1014.2
20260507015506 45 56 4.0 6.0 0.00 0.00 0.00 46 1014.0
20260507015010 45 53 2.0 4.0 0.00 0.00 0.00 45 1013.9
20260507014611 46 56 2.0 4.0 0.00 0.00 0.00 43 1013.6
20260507014527 46 75 2.0 4.0 0.00 0.00 0.00 42 1014.0
20260507014009 46 63 3.0 5.0 0.00 0.00 0.00 41 1014.0
20260507013507 46 55 3.0 6.0 0.00 0.00 0.00 41 1014.1
20260507013049 46 51 3.0 6.0 0.00 0.00 0.00 41 1013.6
20260507013026 46 51 3.0 6.0 0.00 0.00 0.00 41 1014.0
20260507012514 46 56 4.0 6.0 0.00 0.00 0.00 40 1014.0
20260507012010 46 54 4.0 6.0 0.00 0.00 0.00 40 1014.0
20260507011555 46 90 3.0 5.0 0.00 0.00 0.00 41 1013.6
20260507011513 46 53 3.0 5.0 0.00 0.00 0.00 40 1014.1
20260507011005 47 46 3.0 6.0 0.00 0.00 0.00 40 1014.1
20260507010506 47 58 3.0 6.0 0.00 0.00 0.00 40 1014.1
20260507010046 47 31 3.0 5.0 0.00 0.00 0.00 39 1013.7
20260507010016 47 60 3.0 6.0 0.00 0.00 0.00 39 1014.1
20260507005508 47 34 3.0 6.0 0.00 0.00 0.00 39 1014.1
20260507005009 48 31 3.0 6.0 0.00 0.00 0.00 38 1014.2
20260507004541 48 27 2.0 6.0 0.00 0.00 0.00 38 1013.9
20260507004522 48 352 3.0 6.0 0.00 0.00 0.00 38 1014.2
20260507004007 48 20 4.0 6.0 0.00 0.00 0.00 38 1014.2
20260507003508 48 45 2.0 5.0 0.00 0.00 0.00 38 1014.2
20260507003040 48 6 3.0 5.0 0.00 0.00 0.00 37 1013.9
20260507003026 48 25 3.0 8.0 0.00 0.00 0.00 37 1014.2
20260507002510 48 61 4.0 9.0 0.00 0.00 0.00 37 1014.3
20260507002012 49 13 4.0 11.0 0.00 0.00 0.00 37 1014.3
20260507001555 49 40 6.0 11.0 0.00 0.00 0.00 37 1014.0
20260507001525 49 15 6.0 11.0 0.00 0.00 0.00 37 1014.4
20260507001012 50 32 3.0 7.0 0.00 0.00 0.00 36 1014.4
20260507000513 50 314 4.0 7.0 0.00 0.00 0.00 36 1014.4
20260507000043 50 16 2.0 6.0 0.00 0.00 0.00 36 1014.1
20260507000014 50 9 3.0 7.0 0.00 0.00 0.00 35 1014.4
20260506235507 49 309 4.0 9.0 0.00 0.00 0.00 36 1014.5
20260506235008 50 299 6.0 9.0 0.00 0.00 0.00 35 1014.5
20260506234540 51 341 3.0 8.0 0.00 0.00 0.00 36 1014.1
20260506234515 51 330 3.0 15.0 0.00 0.00 0.00 35 1014.5
20260506234006 51 340 3.0 15.0 0.00 0.00 0.00 36 1014.5
20260506233507 51 308 8.0 15.0 0.00 0.00 0.00 35 1014.5
20260506233034 51 311 2.0 11.0 0.00 0.00 0.00 36 1014.2
20260506233025 51 302 4.0 11.0 0.00 0.00 0.00 34 1014.6
20260506232509 51 255 4.0 7.0 0.00 0.00 0.00 36 1014.6
20260506232007 50 23 3.0 7.0 0.00 0.00 0.00 36 1014.7
20260506231534 50 38 1.0 7.0 0.00 0.00 0.00 36 1014.4
20260506231524 50 37 1.0 7.0 0.00 0.00 0.00 35 1014.7
20260506231008 50 305 4.0 7.0 0.00 0.00 0.00 36 1014.8
20260506230510 51 296 3.0 10.0 0.00 0.00 0.00 34 1014.9
20260506230030 51 278 4.0 10.0 0.00 0.00 0.00 36 1014.6
20260506230028 50 301 5.0 10.0 0.00 0.00 0.00 35 1014.9
20260506225508 51 306 4.0 8.0 0.00 0.00 0.00 36 1014.9
20260506225011 50 302 4.0 9.0 0.00 0.00 0.00 36 1014.9
20260506224525 50 331 1.0 10.0 0.00 0.00 0.00 35 1014.6
20260506224517 50 249 3.0 10.0 0.00 0.00 0.00 35 1014.9
20260506224006 50 313 6.0 12.0 0.00 0.00 0.00 36 1015.1
20260506223505 50 17 6.0 14.0 0.00 0.00 0.00 36 1015.1
20260506223022 50 292 7.0 14.0 0.00 0.00 0.00 38 1014.7
20260506223018 50 307 8.0 14.0 0.00 0.00 0.00 37 1015.1
20260506222507 49 293 5.0 13.0 0.00 0.00 0.00 37 1015.1
20260506222012 49 6 7.0 13.0 0.00 0.00 0.00 36 1015.0
20260506221526 49 264 3.0 12.0 0.00 0.00 0.00 38 1015.1
20260506221519 49 264 3.0 8.0 0.00 0.00 0.00 40 1014.9
20260506221011 49 304 5.0 12.0 0.00 0.00 0.00 37 1015.2
20260506220508 49 31 5.0 11.0 0.00 0.00 0.00 38 1015.2
20260506220033 49 341 3.0 10.0 0.00 0.00 0.00 37 1015.2
20260506220017 49 10 3.0 10.0 0.00 0.00 0.00 38 1015.0
20260506215509 48 6 3.0 11.0 0.00 0.00 0.00 39 1015.3
20260506215009 48 311 6.0 13.0 0.00 0.00 0.00 38 1015.4
20260506214527 48 16 7.0 14.0 0.00 0.00 0.00 38 1015.3
20260506214515 48 24 7.0 14.0 0.00 0.00 0.00 39 1015.2
20260506214004 48 309 7.0 14.0 0.00 0.00 0.00 37 1015.4
20260506213506 48 25 7.0 12.0 0.00 0.00 0.00 38 1015.4
20260506213015 49 307 7.0 12.0 0.00 0.00 0.00 38 1015.5
20260506213013 49 304 7.0 12.0 0.00 0.00 0.00 38 1015.4
20260506212503 48 257 4.0 13.0 0.00 0.00 0.00 38 1015.5
20260506212006 48 328 6.0 14.0 0.00 0.00 0.00 38 1015.6
20260506211517 48 315 7.0 14.0 0.00 0.00 0.00 40 1015.5
20260506211512 48 289 7.0 14.0 0.00 0.00 0.00 39 1015.7
20260506211004 49 314 5.0 12.0 0.00 0.00 0.00 38 1015.7
20260506210506 48 286 2.0 13.0 0.00 0.00 0.00 40 1015.8
20260506210017 48 307 9.0 13.0 0.00 0.00 0.00 39 1015.7
20260506205504 48 316 7.0 17.0 0.00 0.00 0.00 38 1015.8
20260506205007 48 297 8.0 17.0 0.00 0.00 0.00 38 1015.9
20260506204515 48 317 8.0 16.0 0.00 0.00 0.00 40 1015.9
20260506204512 48 8 8.0 16.0 0.00 0.00 0.00 39 1015.9
20260506204007 48 271 6.0 16.0 0.00 0.00 0.00 38 1015.9
20260506203507 48 294 3.0 14.0 0.00 0.00 0.00 38 1016.1
20260506203012 48 302 9.0 14.0 0.00 0.00 0.00 38 1016.2
20260506203007 48 304 8.0 14.0 0.00 0.00 0.00 38 1016.0
20260506202505 48 312 7.0 16.0 0.00 0.00 0.00 39 1016.2
20260506202006 49 296 7.0 16.0 0.00 0.00 0.00 39 1016.2
20260506201514 48 319 3.0 11.0 0.00 0.00 0.00 39 1016.2
20260506201509 48 282 3.0 11.0 0.00 0.00 0.00 40 1016.1
20260506201004 48 306 5.0 15.0 0.00 0.00 0.00 39 1016.2
20260506200506 48 283 5.0 15.0 0.00 0.00 0.00 39 1016.3
20260506200021 47 304 9.0 15.0 0.00 0.00 0.00 41 1016.3
20260506200005 47 291 9.0 15.0 0.00 0.00 0.00 41 1016.3
20260506195503 47 292 6.0 11.0 0.00 0.00 0.00 39 1016.3
20260506195006 47 279 2.0 14.0 0.00 0.00 0.00 41 1016.4
20260506194517 47 302 9.0 15.0 0.00 0.00 0.00 39 1016.5
20260506194502 47 302 8.0 14.0 0.00 0.00 0.00 40 1016.5
20260506194008 47 304 7.0 16.0 0.00 0.00 0.00 40 1016.4
20260506193506 47 330 10.0 16.0 0.00 0.00 0.00 38 1016.5
20260506193015 48 295 6.0 15.0 0.00 0.00 0.00 40 1016.5
20260506193001 48 295 5.0 11.0 0.00 0.00 0.00 41 1016.5
20260506192508 47 321 4.0 15.0 0.00 0.00 0.00 43 1016.5
20260506192006 47 319 8.0 16.0 0.00 0.00 0.00 40 1016.6
20260506191605 47 309 5.0 16.0 0.00 0.00 0.00 41 1016.7
20260506191519 46 266 6.0 16.0 0.00 0.00 0.00 42 1016.5
20260506191006 46 284 8.0 15.0 0.00 0.00 0.00 40 1016.6
20260506190507 46 295 6.0 14.0 0.00 0.00 0.00 40 1016.7
20260506190059 46 300 4.0 14.0 0.00 0.00 0.00 41 1016.9
20260506190014 46 276 7.0 14.0 0.00 0.00 0.00 40 1016.8
20260506185504 47 293 5.0 15.0 0.00 0.00 0.00 42 1016.8
20260506185007 46 283 9.0 15.0 0.00 0.00 0.00 40 1016.8
20260506184600 46 309 3.0 13.0 0.00 0.00 0.00 43 1016.9
20260506184515 46 316 3.0 13.0 0.00 0.00 0.00 42 1016.8
20260506184006 46 319 7.0 12.0 0.00 0.00 0.00 40 1016.9
20260506183507 46 242 4.0 9.0 0.00 0.00 0.00 42 1017.0
20260506183104 45 331 5.0 11.0 0.00 0.00 0.00 43 1017.1
20260506183015 45 330 5.0 13.0 0.00 0.00 0.00 43 1017.2
20260506182504 45 313 7.0 15.0 0.00 0.00 0.00 41 1017.3
20260506182009 45 274 9.0 15.0 0.00 0.00 0.00 41 1017.3
20260506181605 46 303 2.0 14.0 0.00 0.00 0.00 43 1017.3
20260506181518 46 313 2.0 14.0 0.00 0.00 0.00 45 1017.2
20260506181005 45 304 7.0 14.0 0.00 0.00 0.00 44 1017.3
20260506180504 45 324 6.0 17.0 0.00 0.00 0.00 44 1017.3
20260506180055 45 300 4.0 17.0 0.00 0.00 0.00 44 1017.5
20260506180017 45 302 5.0 17.0 0.00 0.00 0.00 43 1017.4
20260506175505 45 316 8.0 15.0 0.00 0.00 0.00 44 1017.5
20260506175006 45 307 4.0 14.0 0.00 0.00 0.00 44 1017.4
20260506174552 45 283 2.0 14.0 0.00 0.00 0.00 47 1017.6
20260506174516 45 274 3.0 14.0 0.00 0.00 0.00 46 1017.6
20260506174007 44 290 4.0 16.0 0.00 0.00 0.00 45 1017.7
20260506173507 44 286 6.0 16.0 0.00 0.00 0.00 44 1017.8
20260506173116 43 262 3.0 15.0 0.00 0.00 0.00 47 1017.9
20260506173017 43 332 5.0 15.0 0.00 0.00 0.00 46 1017.8
20260506172506 43 319 9.0 15.0 0.00 0.00 0.00 46 1017.8
20260506172008 43 298 5.0 11.0 0.00 0.00 0.00 46 1017.8
20260506171549 44 308 7.0 13.0 0.00 0.00 0.00 47 1018.0
20260506171518 44 319 6.0 13.0 0.00 0.00 0.00 46 1017.9
20260506171007 43 266 4.0 13.0 0.00 0.00 0.00 46 1017.9
20260506170509 43 316 6.0 15.0 0.00 0.00 0.00 46 1017.9
20260506170103 43 291 4.0 15.0 0.00 0.00 0.00 49 1018.1
20260506170018 42 304 5.0 15.0 0.00 0.00 0.00 47 1017.9
20260506165505 42 310 8.0 14.0 0.00 0.00 0.00 47 1018.0
20260506165008 42 299 9.0 16.0 0.00 0.00 0.00 46 1018.0
20260506164547 42 301 6.0 16.0 0.00 0.00 0.00 48 1018.2
20260506164518 42 326 7.0 16.0 0.00 0.00 0.00 47 1018.0
20260506164009 42 327 3.0 12.0 0.00 0.00 0.00 48 1018.0
20260506163510 42 4 6.0 12.0 0.00 0.00 0.00 44 1018.0
20260506163053 43 333 6.0 12.0 0.00 0.00 0.00 48 1018.3
20260506163031 43 314 6.0 12.0 0.00 0.00 0.00 47 1018.1
20260506162507 42 270 6.0 13.0 0.00 0.00 0.00 48 1018.1
20260506162008 42 298 7.0 13.0 0.00 0.00 0.00 44 1018.1
20260506161545 43 278 2.0 10.0 0.00 0.00 0.00 48 1018.3
20260506161520 42 249 3.0 13.0 0.00 0.00 0.00 49 1018.0
20260506161007 42 304 5.0 14.0 0.00 0.00 0.00 47 1018.1
20260506160506 42 296 8.0 14.0 0.00 0.00 0.00 46 1018.2
20260506160044 42 290 3.0 8.0 0.00 0.00 0.00 49 1018.4
20260506160022 42 266 4.0 8.0 0.00 0.00 0.00 48 1018.2
20260506155508 42 230 5.0 11.0 0.00 0.00 0.00 49 1018.2
20260506155008 42 290 4.0 13.0 0.00 0.00 0.00 48 1018.2
20260506154603 42 297 6.0 13.0 0.00 0.00 0.00 49 1018.3
20260506154530 42 306 7.0 13.0 0.00 0.00 0.00 49 1018.2
20260506154010 42 297 7.0 11.0 0.00 0.00 0.00 48 1018.2
20260506153510 42 333 3.0 11.0 0.00 0.00 0.00 48 1018.2
20260506153040 42 305 3.0 9.0 0.00 0.00 0.00 51 1018.4
20260506153018 42 302 4.0 10.0 0.00 0.00 0.00 50 1018.2
20260506152506 42 297 4.0 12.0 0.00 0.00 0.00 49 1018.2
20260506152009 42 314 7.0 12.0 0.00 0.00 0.00 48 1018.2
20260506151540 42 261 2.0 11.0 0.00 0.00 0.00 50 1018.4
20260506151523 42 290 3.0 11.0 0.00 0.00 0.00 48 1018.2
20260506151009 42 277 6.0 11.0 0.00 0.00 0.00 49 1018.2
20260506150509 42 319 1.0 8.0 0.00 0.00 0.00 51 1018.4
20260506150038 41 326 4.0 8.0 0.00 0.00 0.00 48 1018.5
20260506150022 41 316 5.0 8.0 0.00 0.00 0.00 49 1018.5
20260506145511 41 323 1.0 8.0 0.00 0.00 0.00 51 1018.6
20260506145009 41 329 3.0 8.0 0.00 0.00 0.00 51 1018.5
20260506144542 41 291 3.0 8.0 0.00 0.00 0.00 50 1018.5
20260506144520 41 291 4.0 8.0 0.00 0.00 0.00 49 1018.5
20260506144006 41 307 3.0 9.0 0.00 0.00 0.00 52 1018.6
20260506143509 40 297 5.0 9.0 0.00 0.00 0.00 47 1018.6
20260506143035 41 263 1.0 6.0 0.00 0.00 0.00 52 1018.6
20260506143021 41 273 1.0 6.0 0.00 0.00 0.00 52 1018.6
20260506142507 40 290 3.0 6.0 0.00 0.00 0.00 51 1018.6
20260506142009 40 253 2.0 6.0 0.00 0.00 0.00 52 1018.6
20260506141532 40 297 2.0 6.0 0.00 0.00 0.00 52 1018.7
20260506141520 40 314 3.0 6.0 0.00 0.00 0.00 52 1018.7
20260506141011 40 260 2.0 5.0 0.00 0.00 0.00 53 1018.7
20260506140511 39 267 1.0 5.0 0.00 0.00 0.00 55 1018.6
20260506140033 39 248 2.0 5.0 0.00 0.00 0.00 54 1018.7
20260506140025 39 240 2.0 5.0 0.00 0.00 0.00 53 1018.6
20260506135510 39 21 3.0 5.0 0.00 0.00 0.00 53 1018.6
20260506135009 39 325 2.0 6.0 0.00 0.00 0.00 54 1018.6
20260506134527 38 317 3.0 6.0 0.00 0.00 0.00 54 1018.7
20260506134522 38 314 4.0 6.0 0.00 0.00 0.00 54 1018.5
20260506134009 38 314 4.0 6.0 0.00 0.00 0.00 53 1018.6
20260506133506 38 294 3.0 6.0 0.00 0.00 0.00 53 1018.6
20260506133025 38 309 3.0 5.0 0.00 0.00 0.00 54 1018.6
20260506132510 38 278 1.0 5.0 0.00 0.00 0.00 56 1018.6
20260506132007 37 305 3.0 5.0 0.00 0.00 0.00 56 1018.5
20260506131521 37 314 2.0 5.0 0.00 0.00 0.00 58 1018.5
20260506131008 37 16 3.0 5.0 0.00 0.00 0.00 59 1018.4
20260506130508 37 313 3.0 5.0 0.00 0.00 0.00 61 1018.4
20260506130024 36 305 3.0 5.0 0.00 0.00 0.00 61 1018.4
20260506130017 36 308 2.0 5.0 0.00 0.00 0.00 61 1018.4
20260506125509 36 6 2.0 4.0 0.00 0.00 0.00 64 1018.3
20260506125010 36 310 2.0 4.0 0.00 0.00 0.00 65 1018.3
20260506124524 35 297 2.0 4.0 0.00 0.00 0.00 65 1018.3
20260506124514 35 319 2.0 4.0 0.00 0.00 0.00 66 1018.3
20260506124004 35 356 1.0 4.0 0.00 0.00 0.00 68 1018.3
20260506123504 35 328 1.0 2.0 0.00 0.00 0.00 68 1018.3
20260506123012 34 322 1.0 2.0 0.00 0.00 0.00 69 1018.2
20260506122505 34 345 0.0 1.0 0.00 0.00 0.00 70 1018.1
20260506122006 34 317 0.0 1.0 0.00 0.00 0.00 71 1018.0
20260506121514 34 317 0.0 0.0 0.00 0.00 0.00 72 1018.0
20260506121509 34 317 0.0 0.0 0.00 0.00 0.00 72 1018.1
20260506121007 33 317 0.0 1.0 0.00 0.00 0.00 72 1017.9
20260506120511 33 317 0.0 1.0 0.00 0.00 0.00 72 1017.9
20260506120008 33 322 0.0 1.0 0.00 0.00 0.00 73 1017.9
20260506120004 33 322 0.0 1.0 0.00 0.00 0.00 73 1017.8
20260506115504 33 326 1.0 2.0 0.00 0.00 0.00 73 1017.6
20260506115004 33 304 1.0 2.0 0.00 0.00 0.00 73 1017.5
20260506114507 33 317 1.0 2.0 0.00 0.00 0.00 74 1017.8
20260506114005 33 314 1.0 2.0 0.00 0.00 0.00 74 1017.4
20260506113503 33 320 1.0 2.0 0.00 0.00 0.00 74 1017.4
20260506113015 33 319 1.0 2.0 0.00 0.00 0.00 74 1017.4
20260506113006 33 322 0.0 2.0 0.00 0.00 0.00 75 1017.7
20260506112505 33 309 1.0 2.0 0.00 0.00 0.00 75 1017.3
20260506112006 32 327 1.0 2.0 0.00 0.00 0.00 75 1017.3
20260506111518 33 314 1.0 2.0 0.00 0.00 0.00 75 1017.3
20260506111503 33 314 1.0 2.0 0.00 0.00 0.00 75 1017.6
20260506111003 33 314 1.0 2.0 0.00 0.00 0.00 75 1017.2
20260506110504 33 311 1.0 2.0 0.00 0.00 0.00 74 1017.2
20260506110018 33 317 1.0 2.0 0.00 0.00 0.00 74 1017.2
20260506110001 33 317 1.0 2.0 0.00 0.00 0.00 75 1017.3
20260506105509 33 314 1.0 3.0 0.00 0.00 0.00 74 1017.2
20260506105005 33 323 1.0 3.0 0.00 0.00 0.00 74 1017.2
20260506104634 33 329 1.0 4.0 0.00 0.00 0.00 74 1017.4
20260506104502 33 316 2.0 4.0 0.00 0.00 0.00 74 1017.2
20260506104001 33 318 2.0 4.0 0.00 0.00 0.00 73 1017.2